Home > Weather > Fort Smith > Past weeks

Flag for Canada Weather for the Past 2 Weeks in Fort Smith, Northwest Territories, Canada

Now
9 °F

Light snow. Ice fog.


Feels Like: -3 °F
Forecast: 0 / 13 °F
Wind: 7 mph from Northeast

Location: Fort Smith

Current Time: Feb 9, 2016 at 4:23:21 PM

Latest Report: Feb 9, 2016 at 3:00 PM


Visibility: 1 mi

Pressure: 30.18 "Hg

Humidity: 85%

Dew point: 5 °F

Location of Fort SmithLocation

Historic Weather in Fort Smith — Graph

°F

Fort Smith Temperature Yesterday

Maximum temperature yesterday: 7 °F (at 3:00 PM)
Minimum temperature yesterday: -4 °F (at 9:00 AM)
Average temperature yesterday: 3 °F

High & Low Weather Summary for the Past Weeks

 TemperatureHumidityPressure
High28 °F (Jan 28, 9:00 PM)100% (Jan 28, 1:00 PM)30.46 "Hg (Jan 28, 1:00 PM)
Low-18 °F (Feb 5, 2:00 AM)65% (Feb 7, 3:00 PM)29.08 "Hg (Jan 28, 8:00 PM)
Average4 °F84%29.90 "Hg
* Reported Jan 25 3:00 PM — Feb 9 3:00 PM, Fort Smith, Weather by CustomWeather, © 2016

Note: Actual official high and low records may vary slightly from our data, if they occured in-between our weather recording intervals... More about our weather records

Advertising

Fort Smith Weather History for the Previous 24 Hours

 ConditionsComfort  
Time TempWeatherWind HumidityBarometerVisibility
3:00 PM
Tue, Feb 9
9 °FLight snow. Ice fog.7 mph85%30.18 "Hg1 mi
2:00 PM7 °FLight snow. Ice fog.5 mph85%30.17 "Hg1 mi
1:00 PM7 °FLight snow. Low clouds.3 mph85%30.18 "Hg1 mi
12:00 PM5 °FLight snow. Low clouds.5 mph85%30.19 "Hg5 mi
11:00 AM5 °FLow clouds.5 mph85%30.20 "Hg15 mi
10:00 AM3 °FLow clouds.5 mph85%30.21 "Hg15 mi
9:00 AM3 °FLow clouds.5 mph85%30.23 "Hg15 mi
8:00 AM3 °FOvercast.5 mph85%30.25 "Hg15 mi
7:00 AM3 °FLight snow. Overcast.2 mph85%30.28 "Hg15 mi
6:00 AM3 °FLight snow. Passing clouds.3 mph85%30.29 "Hg15 mi
5:00 AM3 °FLight snow. Passing clouds.5 mph85%30.30 "Hg15 mi
4:00 AM3 °FPassing clouds.2 mph85%30.32 "Hg15 mi
3:00 AM0 °FPassing clouds.No wind84%30.32 "Hg15 mi
2:00 AM-4 °FPassing clouds.2 mph84%30.32 "Hg15 mi
1:00 AM0 °FPassing clouds.No wind84%30.32 "Hg15 mi
12:00 AM0 °FPassing clouds.No wind92%30.35 "Hg15 mi
11:00 PM
Mon, Feb 8
1 °FPassing clouds.2 mph85%30.34 "Hg15 mi
10:00 PM3 °FLight snow. Partly cloudy.No wind85%30.37 "Hg15 mi
9:00 PM5 °FLight snow. Passing clouds.5 mph85%30.36 "Hg15 mi
8:00 PM7 °FLight snow. Overcast.6 mph78%30.34 "Hg15 mi
7:00 PM7 °FLight snow. Passing clouds.3 mph78%30.34 "Hg15 mi
6:00 PM5 °FLight snow. Passing clouds.5 mph85%30.34 "Hg15 mi
5:00 PM5 °FLight snow. Overcast.6 mph85%30.36 "Hg15 mi
4:00 PM7 °FMostly cloudy.5 mph78%30.36 "Hg15 mi
Weather by CustomWeather, © 2016

See weather overviewHow to use our weather pages